Regional Weather Roundup
Issued by NWS

Home | Current Version | Previous Version | Text Only | Print | Product List | Glossary Off
Versions: 1 2 3 4 5 6 7 8 9 10 11 12 13 14 15 16 17 18 19 20 21 22 23 24 25 26 27

000
ASUS45 KTFX 200210
RWRMT
MONTANA REGIONAL WEATHER ROUNDUP
NATIONAL WEATHER SERVICE GREAT FALLS MT
700 PM MST THU JAN 19 2017

NOTE: "FAIR" INDICATES FEW OR NO CLOUDS BELOW 12000 FEET WITH NO
SIGNIFICANT WEATHER AND/OR OBSTRUCTIONS TO VISIBILITY.

MTZ001>007-043-200300-
WEST OF THE DIVIDE

CITY           SKY/WX    TMP DP  RH WIND       PRES   REMARKS
KALISPELL      CLOUDY    32  31  96 W5        29.55S FOG
MISSOULA       CLOUDY    33  33 100 CALM      29.60R FOG
BUTTE          CLOUDY    31  23  72 W5        29.53S
MULLAN PASS    LGT SNOW  29  25  85 VRB3      29.53S VSB 3/4
ANACONDA         N/A     34  30  86 NW3       29.54S
DEER LODGE       N/A     34  34 100 NE7       29.57S WCI  28
EUREKA           N/A     37  30  75 CALM      29.55R
HAMILTON         N/A     34  34 100 CALM      29.59R
PLAINS           N/A     29  24  81 CALM      29.62  VSB 0
RONAN            N/A     34  31  89 CALM      29.64S
$$

MTZ008-052>055-200300-
SOUTHWEST MONTANA

CITY           SKY/WX    TMP DP  RH WIND       PRES   REMARKS
BOZEMAN        CLOUDY    33  26  75 SW5       29.54S
DILLON         CLOUDY    37  22  54 SW7       29.55S WCI  32
W YELLOWSTONE  CLOUDY    27  25  93 SW6       29.62F WCI  20
ENNIS          CLOUDY    34  23  64 S25       29.61F WCI  21
$$

MTZ009-010-012-014-046-048-049-054-200300-
EAST SLOPES AND CENTRAL MONTANA

CITY           SKY/WX    TMP DP  RH WIND       PRES   REMARKS
CUT BANK       CLOUDY    36  26  67 SW15      29.44F WCI  27
GREAT FALLS    CLOUDY    39  28  64 S10       29.47R
MALMSTROM AFB  CLOUDY    38  30  73 SW14      29.47S WCI  29
HELENA         CLOUDY    37  27  67 E3        29.52S
AUGUSTA        MOCLDY    37  25  61 NW9       29.46S WCI  30
BOWMANS CRNR   MOCLDY    37  30  76 SW9       29.46R WCI  30
CHOTEAU          N/A     37  25  60 CALM      29.48S
CONRAD           N/A     39  32  76 W6        29.52S
POWER          MOCLDY    35  30  81 SW5       29.46S
RAYNESFORD     CLOUDY    40  28  62 SW6       29.47F
ULM            MOCLDY    37  30  77 MISG      29.47F
$$

MTZ011-013-016-021-045-047-050-051-200300-
NORTH CENTRAL MONTANA

CITY           SKY/WX    TMP DP  RH WIND       PRES   REMARKS
HAVRE          CLOUDY    37  33  85 SW9       29.45R WCI  30
LEWISTOWN      CLOUDY    39  31  72 S10       29.48S
CHINOOK          N/A     37  32  81 CALM      29.45S
DENTON         CLOUDY    38  31  76 S10       29.44S WCI  31
FORT BENTON      N/A     41  30  65 MISG      29.47S
GEYSER           N/A     38  29  67 SW9       29.47S
GRASS RANGE    DRIZZLE   42  34  72 SW14      29.45S
JUDITH GAP     CLOUDY    38  28  68 W12       29.50R WCI  30
ROY            CLOUDY    44  31  61 MISG      29.46R
STANFORD       MOCLDY    37  30  74 W6        29.47S
WINIFRED       CLOUDY    40  31  68 W8        29.46S
$$

MTZ017>020-022>027-061-062-200300-
NORTHEAST MONTANA

CITY           SKY/WX    TMP DP  RH WIND       PRES   REMARKS
GLASGOW        CLOUDY    26  21  81 VRB6      29.45S WCI  19
JORDAN           N/A     35  30  82 CALM      29.46R
SIDNEY         CLOUDY    20  18  92 SW3       29.45S
WOLF POINT     CLOUDY    19  15  84 SW6       29.46R WCI  11
PLENTYWOOD       N/A     25  21  86 E3        29.42S
POPLAR           N/A     25  19  80 SW6       29.46F WCI  18
SCOBEY           N/A     26  17  68 CALM      29.45
$$

MTZ028>42-056>058-200300-
SOUTHCENTRAL AND SOUTHEAST MONTANA

CITY           SKY/WX    TMP DP  RH WIND       PRES   REMARKS
BAKER          CLOUDY    27  19  72 VRB3      29.45F
BILLINGS       LGT RAIN  36  28  73 SW10      29.53R WCI  28
LIVINGSTON     CLOUDY    40  24  53 SW22G29   29.52S
MILES CITY     CLOUDY    27  18  69 SW8       29.48S WCI  19
BIG TIMBER     CLOUDY    41  25  52 W21       29.54S
EKALAKA          N/A     38  19  46 SW10      29.49  WCI  31
FORSYTH          N/A     30  23  74 CALM      29.48S
HARLOWTON      CLOUDY    38  27  64 W10       29.51R WCI  31
LAUREL           N/A     35  22  59 W2        29.56
$$

REGIONAL REPORTS...DAKOTAS

CITY           SKY/WX    TMP DP  RH WIND       PRES   REMARKS
WILLISTON      CLOUDY    16  13  88 CALM      29.45S
MINOT          CLOUDY    29  25  85 SW6       29.43F WCI  23
DICKINSON      CLOUDY    22  17  81 W9        29.42S WCI  12
BEACH            N/A     30  23  74 W7        29.47R WCI  23
CROSBY           N/A     23  19  86 CALM      29.46S
TIOGA            N/A     23  23 100 CALM      29.45R
WATFORD CITY     N/A     19  18  93 CALM      29.44F
BISMARCK       CLOUDY    12   5  73 E3        29.49F
GRAND FORKS    CLOUDY    33  30  88 S15       29.55S FOG     WCI  23
FARGO          CLOUDY    36  35  96 S16       29.59F FOG     WCI  26
BUFFALO SD       N/A     31  20  63 W10       29.39S WCI  22
RAPID CITY     CLOUDY    29  21  72 NW6       29.46S WCI  23
$$

REGIONAL REPORTS...WYOMING/IDAHO/WASHINGTON

CITY           SKY/WX    TMP DP  RH WIND       PRES   REMARKS
GILLETTE       CLOUDY    36  25  64 W6        29.49S WCI  31
SHERIDAN       CLEAR     24  16  71 MISG      29.51R
BUFFALO WY     CLOUDY    37  22  54 NW8       29.51S WCI  31
CODY           CLOUDY    36  22  56 N5        29.53
YELLOWSTONE LA   N/A     24  21  88 CALM      29.63F
IDAHO FALLS    CLOUDY    30  30 100 SW6       29.68S WCI  24
SALMON         CLOUDY    28  27  93 CALM      29.62S
BOISE          PTCLDY    35  31  85 SE7       29.68S WCI  29
SPOKANE        PTCLDY    34  30  85 SE5       29.58S
$$

REGIONAL REPORTS...ALBERTA

CITY           SKY/WX    TMP DP  RH WIND       PRES   REMARKS
EDMONTON       MOCLDY    34  23  64 W8        29.19R WCI  27
CALGARY        PTCLDY    41  18  38 W8        29.30R
LETHBRIDGE     CLOUDY    37  28  70 SW13      29.39S WCI  29
MEDICINE HAT   MOCLDY    37  28  70 S8        29.35S WCI  31
WATERTON GATE    N/A     36  19  51 SW15G23     N/A  WCI  26
MILK RIVER       N/A     36  28  75 W6          N/A  WCI  31
$$

REGIONAL REPORTS...SASKATCHEWAN

CITY           SKY/WX    TMP DP  RH WIND       PRES   REMARKS
SWIFT CURRENT  CLOUDY    37  32  81 SW14      29.36R WCI  29
REGINA         CLOUDY    32  28  86 SE7       29.38F WCI  26
SASKATOON      MOCLDY    36  32  87 S6        29.31F WCI  31
CYPRESS HILLS    N/A     36  25  64 S2          N/A
VAL MARIE        N/A     34  30  86 SW6         N/A  WCI  29
ROCKGLEN         N/A     37  30  75 W5          N/A
$$




USA.gov is the U.S. government's official web portal to all federal, state and local government web resources and services.